Location: Manston
(51.3500°N, 1.3667°E)
Time: 21:02:47
(UTC+00:00)

Daily predictions for brighter satellites

Satellite Brightness Start Highest point End
(mag) Time Altitude Azimuth Time Altitude Azimuth Time Altitude Azimuth
Cosmos 968 Rocket 4.4 16:59:36 10° SW 17:04:32 48° WNW 17:09:31 10° NNE
CZ-4C R/B 2.9 17:01:19 10° WSW 17:06:28 50° NNW 17:12:45 10° NE
Cosmos 1538 Rocket 4.0 17:02:58 10° NNW 17:08:09 69° ENE 17:13:19 10° SSE
Cosmos 1777 Rocket 4.3 17:05:19 10° S 17:10:22 49° ESE 17:15:27 10° NNE
Cosmos 2082 Rocket 3.8 17:07:10 10° N 17:10:41 16° NNE 17:14:12 10° ENE
Cosmos 1626 2.5 17:07:29 10° SSW 17:11:09 68° WNW 17:14:52 10° N
Envisat 4.1 17:08:32 10° S 17:13:28 50° W 17:18:26 10° NNW
NOSS 3-1 (C) 4.2 17:07:52 10° NW 17:14:40 52° NNE 17:22:43 10° ESE
Helios 1A Rocket 4.5 17:13:41 10° E 17:16:19 17° ENE 17:18:58 10° NNE
CREW DRAGON DEMO-1 DEB 3.3 17:13:59 10° W 17:16:50 57° SSW 17:19:40 10° ESE
COSMO-SKYMED 1 3.7 17:15:12 10° NE 17:18:49 25° E 17:22:24 10° SSE
Meteor 2-10 Rocket 3.6 17:13:34 10° N 17:19:03 60° ENE 17:24:16 10° SSE
Meteor 1-24 Rocket 3.6 17:14:39 10° S 17:19:57 74° E 17:25:16 10° NNE
Cosmos 1354 Rocket 4.4 17:17:41 10° SSW 17:22:59 68° WNW 17:28:21 10° NNE
Cosmos 1844 Rocket 3.4 17:20:02 10° S 17:25:06 35° ESE 17:30:11 10° NE
Cosmos 2227 Rocket 4.1 17:21:02 10° W 17:25:17 21° NW 17:29:33 10° NNE
Cosmos 2279 Rocket 4.1 17:23:06 10° N 17:29:25 87° W 17:35:40 10° S
USA 229 DEB 4.1 17:26:27 10° NW 17:33:22 50° NNE 17:40:42 10° ESE
USA 229 4.1 17:26:34 10° NW 17:33:27 50° NNE 17:40:47 10° ESE
CZ-4B R/B 2.2 17:31:28 10° NNE 17:34:31 31° E 17:37:30 10° SSE
NOSS 3-4 (A) 4.5 17:32:58 10° W 17:38:35 38° NNW 17:44:40 10° NE
NOSS 3-4 (C) 4.5 17:33:03 10° W 17:38:41 38° NNW 17:44:46 10° NE
Aureole 3 3.2 17:37:10 10° N 17:40:27 39° ENE 17:43:22 10° SE
Cosmos 1939 Rocket 2.8 17:36:34 10° SSE 17:40:41 77° ENE 17:44:45 10° N
Cosmos-2242 4.4 17:39:33 10° NNE 17:42:26 17° ENE 17:43:16 16° ENE
Cosmos 2228 4.4 17:40:33 10° NNW 17:44:37 43° W 17:48:40 10° SSW
Okean O Rocket 2.3 17:41:08 10° S 17:45:31 59° WSW 17:49:55 10° NNW
CZ-4B R/B 4.0 17:40:14 10° S 17:45:43 58° W 17:51:19 10° NNW
H-2A R/B 2.2 17:41:23 10° NNE 17:45:53 83° WNW 17:50:14 10° SSW
TELKOM 3 4.0 17:44:50 10° SW 17:46:58 33° SSE 17:48:01 22° ESE
ATLAS 5 CENTAUR R/B 2.4 17:43:53 10° WSW 17:47:55 46° NW 17:52:11 12° NE
Okean-O 3.1 17:44:00 10° SE 17:48:06 39° ENE 17:52:14 10° N
NOSS 3-1 (A) 4.1 17:42:00 10° NW 17:48:52 53° NNE 17:56:58 10° ESE
Cosmos 2297 Rocket 4.4 17:46:25 10° WNW 17:49:42 15° NNW 17:52:59 10° N
CSL-04 Rocket 4.4 17:45:02 10° ESE 17:49:47 32° ENE 17:54:37 10° N
SeaSat 1 3.9 17:45:37 10° NNE 17:50:00 32° NW 17:54:21 10° WSW
Cosmos 44 4.4 17:46:53 10° SSE 17:50:49 25° ESE 17:53:00 19° ENE
X-37B 2.6 17:48:40 10° SW 17:51:06 20° SSE 17:52:52 13° SE
Feng Yun 1-1 Rocket 4.2 17:45:44 10° SSE 17:51:12 81° ENE 17:56:49 10° NNW
Cosmos 158 Rocket 4.0 17:45:54 10° NNW 17:51:16 79° ENE 17:56:40 10° SSE
YAOGAN 1 3.0 17:47:42 10° SE 17:51:43 39° ENE 17:55:46 10° N
Cosmos 1892 Rocket 3.5 17:48:23 10° S 17:52:43 88° W 17:57:06 10° N
Aureole 2 Rocket 2.0 17:50:59 10° SSW 17:54:02 71° ESE 17:56:15 17° NNE
MOS 1 Rocket 3.4 17:51:30 10° NNE 17:55:37 42° E 17:59:42 10° S
ATLAS 2AS CENTAUR R/B 3.8 17:48:37 10° W 17:56:09 45° NNW 18:02:51 12° NE
CZ-4 R/B 1.5 17:55:18 10° SE 17:59:14 50° ENE 18:03:08 10° N
CZ-2D R/B 3.1 17:56:17 10° SSE 18:00:08 83° ENE 18:04:00 10° NNW
Cosmos 405 4.1 17:57:57 10° N 18:00:24 24° NE 18:00:24 24° NE
Meteor 1-21 Rocket 4.3 17:55:54 10° S 18:01:12 51° E 18:06:36 10° NNE
COSMOS 2455 2.8 17:55:23 10° SW 18:01:25 89° SE 18:06:57 13° NE
SJ 16-02 1.4 17:57:18 10° S 18:01:38 59° ESE 18:05:19 14° NNE
Cosmos 1812 Rocket 3.9 17:58:06 10° N 18:02:19 42° ENE 18:06:29 10° SE
CZ-3B R/B 1.6 18:00:12 10° WNW 18:02:32 84° SSW 18:08:35 10° ESE
SKYMED 2 3.5 18:02:46 10° NNE 18:07:08 69° ESE 18:11:27 10° S
Cosmos 923 Rocket 4.1 18:04:16 10° NNW 18:09:39 84° WSW 18:14:58 10° SSE
Cosmos 1455 2.2 18:06:18 10° NNW 18:10:08 82° W 18:13:59 10° S
Cosmos 1340 3.4 18:09:27 10° SSE 18:12:37 31° E 18:12:37 31° E
ERS-2 2.3 18:11:58 26° NE 18:13:37 46° E 18:17:07 10° S
Iridium 4 Rocket 3.8 18:10:01 10° N 18:15:31 50° E 18:20:36 10° SSE
Cosmos 1689 Rocket 3.9 18:17:18 18° SSE 18:17:18 18° SSE 18:18:16 10° SSE
Cosmos 1680 Rocket 3.4 18:10:36 10° NNW 18:15:53 86° ENE 18:21:06 10° SSE
Cosmos 2263 Rocket 3.6 18:11:02 10° WSW 18:16:11 34° NW 18:21:20 10° NNE
Cosmos 1898 Rocket 4.0 18:11:37 10° S 18:16:26 38° ESE 18:18:36 26° ENE
Cosmos 1092 Rocket 4.0 18:10:52 10° SSE 18:16:52 55° E 18:22:51 10° NNE
USA 234 3.5 18:14:04 23° ENE 18:18:09 56° N 18:24:33 10° WNW
IRS-1C Rocket 4.2 18:14:13 10° SSE 18:19:29 81° WSW 18:24:47 10° NNW
USA 290 4.4 18:17:46 10° N 18:18:36 15° N 18:18:36 15° N
Cosmos 2344 4.2 18:12:18 10° NW 18:21:07 74° NE 18:33:20 10° SE
ARGOS 3.2 18:18:02 10° SE 18:23:15 56° ENE 18:28:32 10° N
NOAA 15 4.5 18:18:49 10° SSE 18:24:05 80° ENE 18:29:23 10° NNW
H-2A R/B 1.9 18:19:54 10° SSE 18:24:55 75° ENE 18:30:06 10° NNW
Lacrosse 5 3.5 18:21:27 10° WNW 18:25:57 33° SW 18:30:26 10° SSE
Meteor 2-13 Rocket 4.5 18:21:36 10° S 18:27:43 86° W 18:33:55 10° N
CZ-2C R/B 3.4 18:29:46 32° E 18:29:53 32° E 18:34:51 10° SSE
Cosmos 2098 Rocket 4.5 18:23:29 10° SSE 18:30:27 50° E 18:37:28 10° NNE
Nadezhda 4 Rocket 4.1 18:24:45 10° SSW 18:31:00 80° W 18:37:13 10° N
ISS -3.7 18:31:19 10° WSW 18:34:40 62° SSE 18:34:48 61° SSE
NOSS 2-1 (E) 4.3 18:32:13 10° S 18:34:09 25° SSE 18:34:09 25° SSE
Aureole 3 Rocket 4.4 18:33:00 10° N 18:33:44 16° N 18:33:44 16° N
Cosmos 1703 3.1 18:35:09 10° S 18:39:01 85° E 18:40:54 29° NNE
COSMOS 2406 3.2 18:34:46 10° NNW 18:40:34 68° ENE 18:44:00 25° SE
Cosmos 1818 3.6 18:35:16 10° SW 18:40:43 78° NW 18:43:39 29° NE
CZ-2C R/B 4.0 18:36:06 10° S 18:41:23 54° W 18:46:58 10° NNW
CSL-04 Debris 4.0 18:36:55 10° SSE 18:42:18 78° ENE 18:47:43 10° NNW
Cosmos 1626 Rocket 3.7 18:38:39 10° SSW 18:43:03 77° WNW 18:47:31 10° N
Cosmos 1937 Rocket 3.7 18:41:46 10° S 18:46:52 49° ESE 18:47:29 47° E
Cosmos 1833 Rocket 2.6 18:41:50 10° NNW 18:47:28 67° ENE 18:49:44 36° SE
SAR-Lupe-4 3.5 18:49:59 79° NNW 18:50:10 85° WNW 18:53:45 10° SSW
Helios 1A Rocket 3.1 18:46:51 10° S 18:51:00 72° WSW 18:55:09 10° NNW
Meteor 2-19 Rocket 4.4 18:46:19 10° S 18:52:21 59° E 18:58:25 10° NNE
COSMO-SKYMED 1 3.7 18:51:01 10° N 18:55:09 43° WNW 18:59:15 10° SW
Cosmos 2082 Rocket 2.4 18:50:42 10° NNW 18:56:16 48° NE 18:56:34 48° ENE
CZ-4C R/B 3.8 18:51:22 10° WNW 18:56:27 29° N 18:59:07 22° NNE
Cosmos 1844 3.9 18:50:57 10° SW 18:56:37 70° WNW 19:00:15 23° NNE
USA 281 4.1 18:58:06 30° NE 18:58:06 30° NE 19:03:32 10° NNW
Cosmos 1417 Rocket 4.4 18:55:36 10° N 19:01:47 65° ENE 19:06:54 16° SSE
Cosmos 1553 Rocket 3.9 18:59:19 10° N 19:05:48 78° E 19:12:09 10° SSE
NOSS 3-1 (C) 4.4 18:58:41 10° NW 19:05:59 64° SW 19:14:27 10° SSE
CZ-4B R/B 3.9 19:03:56 10° NNW 19:06:34 21° WNW 19:09:09 10° WSW
Cosmos 1758 Rocket 3.8 19:02:16 10° S 19:05:48 56° S 19:05:48 56° S
Cosmos 2026 Rocket 3.9 19:01:11 10° S 19:07:20 87° W 19:13:37 10° N
Cosmos 1844 Rocket 3.4 19:03:22 10° SW 19:08:52 50° NW 19:12:26 21° NNE
Meteor 2-15 4.5 19:05:30 10° NNW 19:11:41 81° W 19:17:49 10° S
Cosmos 1328 4.4 19:10:28 10° SSW 19:14:24 55° WNW 19:14:44 53° NW
Cosmos 990 Rocket 4.3 19:14:29 10° SW 19:19:40 65° WNW 19:21:25 40° N
Cosmos-2242 3.4 19:16:10 10° NNW 19:20:14 62° W 19:20:14 62° W
USA 267 4.4 19:26:06 26° SSE 19:26:06 26° SSE 19:29:46 10° SSW
USA 229 DEB 4.2 19:17:31 10° NW 19:24:41 64° SW 19:29:22 25° SSE
USA 229 4.2 19:17:37 10° NW 19:24:47 65° SW 19:29:23 26° SSE
Cosmos 2278 Rocket 3.1 19:20:07 10° S 19:23:28 35° S 19:23:28 35° S
X-37B 3.6 19:24:28 10° WSW 19:25:09 14° SW 19:25:09 14° SW
S3M 3.8 19:23:12 10° N 19:29:21 81° E 19:29:53 74° SE
CSL-04 Rocket 4.5 19:24:39 10° S 19:29:55 51° W 19:35:17 10° NNW
Cosmos 44 3.6 19:26:45 10° SW 19:31:28 67° WNW 19:31:28 67° WNW
Meteor 1-11 4.3 19:27:20 10° SSW 19:33:02 75° WNW 19:35:24 37° N
ATLAS 5 CENTAUR R/B 3.6 19:30:08 10° WNW 19:33:42 22° N 19:33:42 22° N
CZ-4 R/B 4.1 19:31:36 10° SW 19:34:32 19° W 19:37:26 10° NW
Ariane Rocket 4.2 19:38:15 31° N 19:38:15 31° N 19:40:55 10° NNW
NOSS 3-1 (A) 4.4 19:32:53 10° NW 19:40:12 62° SW 19:44:37 30° SSE
SJ 16-02 3.6 19:37:09 10° WSW 19:40:35 22° NW 19:42:20 17° NNW
MetOp-A 4.4 19:42:20 63° NW 19:42:20 63° NW 19:46:54 10° NNW
COSMOS 2455 4.4 19:42:52 10° W 19:48:07 30° NNW 19:50:07 25° N
ATLAS 2AS CENTAUR R/B 3.9 19:42:06 10° WNW 19:49:00 32° N 19:50:17 31° NNE
USA 234 3.2 20:01:24 78° NW 20:01:24 78° NW 20:07:32 10° WNW
CZ-2C R/B 3.6 20:11:15 46° W 20:11:15 46° W 20:15:45 10° SW
Cosmos 2082 Rocket 3.9 20:35:02 10° NW 20:38:27 30° WNW 20:38:27 30° WNW
USA 281 4.4 20:44:58 36° NNW 20:44:58 36° NNW 20:48:34 10° NNW
CZ-4C R/B 4.2 20:40:54 10° NW 20:44:18 27° NNW 20:44:18 27° NNW
